Location: Doughton Park
(36.4224°N, 81.1835°W)
Time: 07:08:07
(UTC-05:00)

ISS - All Passes

Search period start: 22 December 2014 00:00
Search period end: 01 January 2015 00:00
Orbit: 404 x 414 km, 51.6° (Epoch: 22 December)

Date Brightness Start Highest point End Pass type
(mag) Time Alt. Az. Time Alt. Az. Time Alt. Az.
22 Dec - 12:10:58 10° S 12:13:47 26° SE 12:16:37 10° ENE daylight
22 Dec - 13:47:24 10° W 13:50:18 28° NNW 13:53:13 10° NNE daylight
22 Dec - 18:41:29 10° NNW 18:43:37 16° NNE 18:45:44 10° ENE visible
22 Dec - 20:17:14 10° NW 20:20:29 65° SW 20:23:42 10° SE visible
23 Dec - 11:21:26 10° SSE 11:23:08 14° SE 11:24:51 10° E daylight
23 Dec - 12:56:10 10° WSW 12:59:23 49° NW 13:02:37 10° NE daylight
23 Dec - 14:36:02 10° NNW 14:36:36 10° NNW 14:37:10 10° N daylight
23 Dec - 17:51:26 10° N 17:52:31 11° NNE 17:53:35 10° NE visible
23 Dec - 19:26:24 10° NW 19:29:39 60° NE 19:32:52 10° ESE visible
23 Dec - 21:04:58 10° WSW 21:05:49 11° SW 21:06:39 10° SW night (unlit)
24 Dec - 12:05:13 10° SW 12:08:30 81° SE 12:11:49 10° NE daylight
24 Dec - 13:43:30 10° WNW 13:45:27 15° NNW 13:47:23 10° N daylight
24 Dec - 18:35:43 10° NNW 18:38:42 32° NE 18:41:41 10° E visible
24 Dec - 20:12:34 10° WNW 20:15:08 21° SW 20:17:41 10° S visible
25 Dec - 11:14:35 10° SSW 11:17:40 38° SE 11:20:46 10° ENE daylight
25 Dec - 12:51:41 10° W 12:54:19 22° NNW 12:56:58 10° NNE daylight
25 Dec - 17:45:08 10° NNW 17:47:38 20° NNE 17:50:08 10° E visible
25 Dec - 19:21:13 10° WNW 19:24:21 43° SW 19:27:27 10° SSE visible
26 Dec - 10:24:26 10° S 10:26:52 19° SE 10:29:17 10° E daylight
26 Dec - 12:00:09 10° WSW 12:03:14 36° NW 12:06:20 10° NNE daylight
26 Dec - 16:54:44 10° N 16:56:27 13° NNE 16:58:10 10° NE daylight
26 Dec - 18:30:09 10° NW 18:33:26 87° NE 18:36:42 10° SE visible
27 Dec - 11:08:54 10° SW 11:12:12 70° NW 11:15:30 10° NE daylight
27 Dec - 12:47:51 10° NW 12:49:16 12° NNW 12:50:41 10° N daylight
27 Dec - 17:39:15 10° NW 17:42:25 43° NE 17:45:33 10° ESE visible
27 Dec - 19:16:42 10° W 19:18:41 15° SW 19:20:40 10° SSW visible
28 Dec - 10:17:57 10° SW 10:21:12 55° SE 10:24:26 10° ENE daylight
28 Dec - 11:55:39 10° WNW 11:57:59 18° NNW 12:00:19 10° NNE daylight
28 Dec - 16:48:28 10° NNW 16:51:16 25° NNE 16:54:02 10° E daylight
28 Dec - 18:24:54 10° WNW 18:27:49 30° SW 18:30:42 10° SSE visible
29 Dec - 09:27:24 10° S 09:30:14 27° SE 09:33:04 10° ENE daylight
29 Dec - 11:03:50 10° W 11:06:44 27° NNW 11:09:38 10° NNE daylight
29 Dec - 15:57:49 10° NNW 15:59:59 16° NNE 16:02:08 10° ENE daylight
29 Dec - 17:33:34 10° NW 17:36:50 64° SW 17:40:03 10° SE daylight
30 Dec - 08:37:33 10° SSE 08:39:18 14° SE 08:41:02 10° E daylight
30 Dec - 10:12:18 10° WSW 10:15:31 49° NW 10:18:45 10° NE daylight
30 Dec - 11:52:10 10° NNW 11:52:44 10° NNW 11:53:17 10° N daylight
30 Dec - 15:07:29 10° N 15:08:36 11° NNE 15:09:42 10° NE daylight
30 Dec - 16:42:28 10° NW 16:45:43 61° NE 16:48:57 10° ESE daylight
30 Dec - 18:21:02 10° WSW 18:21:51 11° SW 18:22:40 10° SW visible
31 Dec - 09:21:04 10° SW 09:24:21 81° SE 09:27:40 10° NE daylight
31 Dec - 10:59:20 10° WNW 11:01:17 15° NNW 11:03:13 10° N daylight
31 Dec - 15:51:29 10° NNW 15:54:29 32° NE 15:57:28 10° E daylight
31 Dec - 17:28:19 10° WNW 17:30:53 21° SW 17:33:27 10° S daylight
